This demonstration page uses our WeatherBlox Daily Observations layout. Learn more.

Left ArrowRight Arrow

39.29038, -76.61219

Hourly Observations for May 23, 2022

Temp ( °F °C ) Dew Point ( °F °C ) Humidity (%) Winds ( mph kmh ) Pressure ( in mb ) Visibility ( mi km ) Precip ( " mm )
12:54 am 00:54 Partly Cloudy 69 20.6 67 19.4 93 93 W 7 11 30.09 1019 8 13 0.00 0.00
1:54 am 01:54 Partly Cloudy 69 20.6 66 18.9 90 90 WNW 5 7 30.09 1019 9 14 0.00 0.00
2:54 am 02:54 Partly Cloudy 67 19.4 63 17.2 87 87 WNW 8 13 30.10 1019 10 16 0.00 0.00
3:54 am 03:54 Mostly Cloudy 65 18.3 60 15.6 84 84 Calm 30.11 1020 10 16 0.00 0.00
4:54 am 04:54 Partly Cloudy 63 17.2 59 15 87 87 NW 5 7 30.12 1020 10 16 0.00 0.00
5:54 am 05:54 Mostly Cloudy 63 17.2 57 13.9 81 81 NNW 5 7 30.16 1021 10 16 0.00 0.00
6:54 am 06:54 Mostly Cloudy 63 17.2 51 10.6 65 65 N 8 13 30.19 1022 10 16 0.00 0.00
7:54 am 07:54 Mostly Cloudy 63 17.2 51 10.6 65 65 N 8 13 30.21 1023 10 16 0.00 0.00
8:54 am 08:54 Mostly Cloudy 65 18.3 51 10.6 61 61 NNW 9 15 30.22 1024 10 16 0.00 0.00
9:54 am 09:54 Mostly Cloudy 67 19.4 50 10 55 55 NNE 12 19 30.23 1024 10 16 0.00 0.00
10:54 am 10:54 Mostly Cloudy 68 20 49 9.4 51 51 N 9 15 30.24 1024 10 16 0.00 0.00
11:54 am 11:54 Mostly Cloudy 71 21.7 50 10 47 47 ENE 7 11 30.22 1024 10 16 0.00 0.00
12:54 pm 12:54 Mostly Cloudy 73 22.8 51 10.6 46 46 NNW 6 9 30.22 1023 10 16 0.00 0.00
1:54 pm 13:54 Partly Cloudy 75 23.9 51 10.6 43 43 NNE 7 11 30.19 1022 10 16 0.00 0.00
2:54 pm 14:54 Mostly Cloudy 74 23.3 50 10 43 43 NE 8 13 30.19 1022 10 16 0.00 0.00
3:54 pm 15:54 Cloudy 73 22.8 49 9.4 43 43 VRB 6 9 30.18 1022 10 16 0.00 0.00
4:54 pm 16:54 Cloudy 71 21.7 50 10 47 47 WNW 7 11 30.17 1022 10 16 0.00 0.00
5:54 pm 17:54 Cloudy 70 21.1 52 11.1 53 53 WNW 6 9 30.18 1022 10 16 0.00 0.00
6:54 pm 18:54 Cloudy 70 21.1 49 9.4 47 47 VRB 7 11 30.16 1021 10 16 0.00 0.00
7:54 pm 19:54 Cloudy 68 20 50 10 53 53 NNW 7 11 30.17 1022 10 16 0.00 0.00
8:54 pm 20:54 Cloudy 67 19.4 49 9.4 53 53 VRB 3 6 30.20 1023 10 16 0.00 0.00
9:54 pm 21:54 Cloudy with Light Rain 63 17.2 54 12.2 73 73 Calm 30.20 1023 10 16 0.00 0.00
10:54 pm 22:54 Cloudy 64 17.8 53 11.7 68 68 VRB 3 6 30.19 1023 10 16 0.00 0.00
11:54 pm 23:54 Cloudy with Light Rain 62 16.7 56 13.3 80 80 NNW 7 11 30.19 1023 10 16 0.00 0.00

Powered by AerisWeather